Location: ?????
(55.6500°N, 37.2500°E)
Time: 04:41:59
(UTC+00:00)

Cosmos 2322 Rocket - Pass Details

Date: 19 May 2025
Orbit: 832 x 849 km, 71.0° (Epoch: 19 June)

Event Time Altitude Azimuth Distance (km) Brightness Sun altitude
Rises 22:51:03 0° 317° (NW) 3,416 5.7 -12.3°
Reaches altitude 10° 22:54:41 10° 294° (WNW) 2,471 4.7 -12.1°
Maximum altitude 22:57:31 14° 264° (W) 2,178 4.1 -12.0°
Enters shadow 23:00:08 11° 235° (SW) 2,420 4.1 -11.9°
